FENGYUN 1C DEB, 35147

Orbit data source: Space-Track

FENGYUN 1C DEB, 35147 is space debris in SSO originally from a launch on Mon, 10 May 1999 UTC launched from the Taiyaun Space Center, China (TSC). Fengyun 1C debris stems from the Chinese weather satellite Fengyun-1C, which was intentionally destroyed by a Chinese anti-satellite missile in 2007. This event dramatically increased the amount of space debris, with thousands of trackable fragments posing hazards to satellites and human spaceflight. The Fengyun 1C debris cloud has become a focal point in discussions about space sustainability and the need for international regulations to prevent the creation of new debris.

Loading next visibility...
Identifier
35147, 1999-025DMB
Orbit
SSO
Country
Flag of CNCN / PRC
Related business
Manufacturer
Unknown
Mission
Spacecraft
Bus & Motor
Unknown
Mass
Unknown
Launch date (UTC)
1999-05-10 (27 years ago)
Launch vehicle
Unknown
Launch site
Taiyaun Space Center, China (TSC)
Object type
Payload
Rocket body
Debris
Shape & HBR
Unknown shape, 0.1 m
Radar Cross Section
Small (<0.1 m²)

Expand to show TLE details & history
Last TLE update: 1 day ago

TLE from 1 day ago
0 FENGYUN 1C DEB
1 35147U 99025DMB 26235.29957335  .00016355  00000-0  20670-2 0  9993
2 35147  99.4815 358.1126 0029622 143.8652 216.4565 14.81657333780504
Epoch: 2026-08-23T07:11Z
TLE epoch observation values (Epoch: 2026-08-23T07:11:23.137Z)
Latitude
-0.00002°
Longitude
-81.33142°
Altitude
643.778 km
Speed
7.527 km/s
True Right ascension
23h 52m 27s
True Declination
0° 00' 00"
Sunlit
Object was in full shadow at epoch
Visualization orbit readout
Latitude
Unknown
Longitude
Unknown
Altitude
Unknown
Speed
Unknown
Apparent Right ascension
Unknown
Apparent Declination
Unknown
Sunlit
N/A
Visualization observer readout
Local Sidereal Time
09:56:34
Azimuth
Unknown
Elevation
Unknown
Doppler factor
Unknown
Orbital elements
Apogee altitude
641.947 km
Perigee altitude
600.48 km
Semi-major axis
6,999.351 km
Eccentricity
0.00296
Inclination
99.4815°
RAAN
358.1126°
Arg. of periapsis
143.8652°
True anomaly
216.2554°
Mean anomaly
216.4565°
Eccentric anomaly
216.35589°
Mean motion
3.70644 °/min
Orbital period
97.13 mins
BSTAR
0.002067
Loading maneuver chart data...
Computing Atmospheric mass density...

Documentation

Showing up to 5 results
|